Regional Weather Roundup
Issued by NWS Sioux Falls, SD

Home | Current Version | Previous Version | Text Only | Print | Product List | Glossary On
Versions: 1 2 3 4 5 6 7 8 9 10 11 12 13 14 15 16 17 18 19 20 21 22 23 24 25 26 27 28 29 30 31 32 33 34 35 36 37 38 39 40 41 42 43 44 45 46 47 48 49 50
000
ASUS43 KFSD 281602
RWRFSD

WEATHER ROUNDUP FOR SE SOUTH DAKOTA/SW MINNESOTA/NW IOWA
NATIONAL WEATHER SERVICE SIOUX FALLS SD
1100 AM CDT THU APR 28 2016

NOTE: "FAIR" INDICATES FEW OR NO CLOUDS BELOW 12,000 FEET WITH NO
SIGNIFICANT WEATHER AND OR OBSTRUCTIONS TO VISIBILITY.


SDZ038>040-050-052>070-281700-
SOUTHEAST SOUTH DAKOTA

CITY           SKY/WX    TMP DP  RH WIND       PRES   REMARKS
BROOKINGS      CLOUDY    35  33  92 NE13      29.96R WCI  26
CHAMBERLAIN    NOT AVBL
HURON          LGT RAIN  38  35  89 NE12      30.00R
MADISON        MIX PCPN  34  34 100 NE14      29.96R WCI  24
MITCHELL       LGT RAIN  39  37  92 N13       29.99R
SIOUX FALLS    CLOUDY    40  37  89 NE8       29.95R
WINNER         CLOUDY    39  35  86 N13       30.01R
YANKTON        CLOUDY    43  36  75 N10       29.95R
$$

MNZ071-072-080-081-089-090-097-098-281700-
SOUTHWEST MINNESOTA

CITY           SKY/WX    TMP DP  RH WIND       PRES   REMARKS
FAIRMONT       CLOUDY    39  28  65 NE10      29.90R
JACKSON        CLOUDY    41  34  75 NE14      29.91R
LUVERNE        CLOUDY    37  34  87 NE10      29.93R
MARSHALL       CLOUDY    38  33  82 NE13      29.97R
MONTEVIDEO     LGT RAIN  36  36 100 E13       30.02R
PIPESTONE      DRIZZLE   37  36  93 NE12      29.94R
REDWOOD FALLS  CLOUDY    38  33  82 NE10G17   29.97R
TRACY          CLOUDY    39  35  87 NE12      29.96R
WINDOM         CLOUDY    39  37  93 NE12      29.92R
WORTHINGTON    CLOUDY    38  36  92 NE14      29.92R
$$

IAZ001>003-012>014-020>022-031-032-NEZ013-014-SDZ071-281700-
NORTHWEST IOWA

CITY           SKY/WX    TMP DP  RH WIND       PRES   REMARKS
CHEROKEE       CLOUDY    41  41 100 N8        29.89R FOG
DENISON        CLOUDY    45  45 100 NW14      29.85R FOG
ESTHERVILLE    LGT RAIN  39  38  96 N13       29.89R
LE MARS        CLOUDY    43  39  87 N8        29.93R
SHELDON        CLOUDY    39  37  93 NE12      29.90R
SIOUX CITY     CLOUDY    45  41  86 N12       29.92R
SPENCER        LGT RAIN  41  37  86 NE15      29.89R
STORM LAKE     MIX PCPN  41  39  93 N12       29.88R
$$

ABBREVIATIONS USED IN REMARKS
   TC - TEMPERATURE IN CELSIUS
  WCI - WIND CHILL INDEX
   HX - HEAT INDEX
  VSB - VISIBILITY




USA.gov is the U.S. government's official web portal to all federal, state and local government web resources and services.